Time,TemperatureF,DewpointF,PressureIn,WindDirection,WindDirectionDegrees,WindSpeedMPH,WindSpeedGustMPH,Humidity,HourlyPrecipIn,Conditions,Clouds,dailyrainin,SoftwareType,DateUTC
2013-01-26 00:00:00,13.4,9.5,30.09,NW,309,0.0,5.0,84,0.00,,---,0.00,VWS V13.00,2013-01-26 05:00:00,
2013-01-26 00:02:00,13.4,9.5,30.09,NW,309,0.0,5.0,84,0.00,,---,0.00,VWS V13.00,2013-01-26 05:02:00,
2013-01-26 00:07:00,13.3,9.6,30.09,NW,310,2.0,5.0,85,0.00,,---,0.00,VWS V13.00,2013-01-26 05:07:00,
2013-01-26 00:12:00,13.2,9.6,30.09,NW,310,2.0,5.0,85,0.00,,---,0.00,VWS V13.00,2013-01-26 05:12:00,
2013-01-26 00:17:00,13.0,9.4,30.09,NW,310,2.0,5.0,85,0.00,,---,0.00,VWS V13.00,2013-01-26 05:17:00,
2013-01-26 00:22:00,12.9,9.2,30.08,NW,310,1.0,5.0,85,0.00,,---,0.00,VWS V13.00,2013-01-26 05:22:00,
2013-01-26 00:27:00,12.9,9.2,30.08,NW,310,0.0,5.0,85,0.00,,---,0.00,VWS V13.00,2013-01-26 05:27:00,
2013-01-26 00:32:00,12.8,9.4,30.08,NW,306,0.0,5.0,86,0.00,,---,0.00,VWS V13.00,2013-01-26 05:32:00,
2013-01-26 00:37:00,12.7,9.3,30.08,NW,305,0.0,2.0,86,0.00,,---,0.00,VWS V13.00,2013-01-26 05:37:00,
2013-01-26 00:42:00,12.7,9.3,30.08,NW,304,2.0,3.0,86,0.00,,---,0.00,VWS V13.00,2013-01-26 05:42:00,
2013-01-26 00:47:00,12.7,9.3,30.08,WNW,303,1.0,3.0,86,0.00,,---,0.00,VWS V13.00,2013-01-26 05:47:00,
2013-01-26 00:52:00,12.6,9.2,30.08,WNW,302,1.0,3.0,86,0.00,,---,0.00,VWS V13.00,2013-01-26 05:52:00,
2013-01-26 00:57:00,12.6,9.2,30.08,WNW,302,0.0,3.0,86,0.00,,---,0.00,VWS V13.00,2013-01-26 05:57:00,
2013-01-26 01:02:00,12.5,9.1,30.08,WNW,302,0.0,3.0,86,0.00,,---,0.00,VWS V13.00,2013-01-26 06:02:00,
2013-01-26 01:07:00,12.5,9.1,30.07,WNW,302,0.0,0.0,86,0.00,,---,0.00,VWS V13.00,2013-01-26 06:07:00,
2013-01-26 01:12:00,12.5,9.1,30.07,WNW,302,0.0,2.0,86,0.00,,---,0.00,VWS V13.00,2013-01-26 06:12:00,
2013-01-26 01:17:00,12.5,9.1,30.07,WNW,302,1.0,4.0,86,0.00,,---,0.00,VWS V13.00,2013-01-26 06:17:00,
2013-01-26 01:22:00,12.4,9.0,30.08,WNW,302,0.0,4.0,86,0.00,,---,0.00,VWS V13.00,2013-01-26 06:22:00,
2013-01-26 01:27:00,12.3,8.9,30.07,WNW,302,0.0,4.0,86,0.00,,---,0.00,VWS V13.00,2013-01-26 06:27:00,
2013-01-26 01:32:00,12.3,8.9,30.08,WNW,302,0.0,4.0,86,0.00,,---,0.00,VWS V13.00,2013-01-26 06:32:00,
2013-01-26 01:37:00,12.2,8.8,30.07,WNW,302,1.0,1.0,86,0.00,,---,0.00,VWS V13.00,2013-01-26 06:37:00,
2013-01-26 01:42:00,12.2,8.8,30.07,WNW,302,0.0,4.0,86,0.00,,---,0.00,VWS V13.00,2013-01-26 06:42:00,
2013-01-26 01:47:00,12.1,8.7,30.07,WNW,302,1.0,4.0,86,0.00,,---,0.00,VWS V13.00,2013-01-26 06:47:00,
2013-01-26 01:52:00,12.1,8.7,30.07,WNW,302,1.0,4.0,86,0.00,,---,0.00,VWS V13.00,2013-01-26 06:52:00,
2013-01-26 01:57:00,12.1,9.0,30.07,WNW,302,1.0,4.0,87,0.00,,---,0.00,VWS V13.00,2013-01-26 06:57:00,
2013-01-26 02:02:00,12.0,8.9,30.07,WNW,302,0.0,4.0,87,0.00,,---,0.00,VWS V13.00,2013-01-26 07:02:00,
2013-01-26 02:07:00,11.9,8.8,30.06,WNW,302,1.0,3.0,87,0.00,,---,0.00,VWS V13.00,2013-01-26 07:07:00,
2013-01-26 02:12:00,11.9,8.8,30.06,WNW,302,0.0,3.0,87,0.00,,---,0.00,VWS V13.00,2013-01-26 07:12:00,
2013-01-26 02:17:00,11.8,8.4,30.06,WNW,302,0.0,3.0,86,0.00,,---,0.00,VWS V13.00,2013-01-26 07:17:00,
2013-01-26 02:22:00,11.7,8.3,30.06,WNW,302,0.0,3.0,86,0.00,,---,0.00,VWS V13.00,2013-01-26 07:22:00,
2013-01-26 02:27:00,11.6,8.2,30.06,WNW,302,0.0,4.0,86,0.00,,---,0.00,VWS V13.00,2013-01-26 07:27:00,
2013-01-26 02:32:00,11.4,8.0,30.06,WNW,302,1.0,4.0,86,0.00,,---,0.00,VWS V13.00,2013-01-26 07:32:00,
2013-01-26 02:37:00,11.2,7.8,30.06,WNW,302,0.0,0.0,86,0.00,,---,0.00,VWS V13.00,2013-01-26 07:37:00,
2013-01-26 02:42:00,11.0,7.6,30.05,WNW,302,2.0,3.0,86,0.00,,---,0.00,VWS V13.00,2013-01-26 07:42:00,
2013-01-26 02:47:00,10.8,7.4,30.05,WNW,302,0.0,3.0,86,0.00,,---,0.00,VWS V13.00,2013-01-26 07:47:00,
2013-01-26 02:52:00,10.6,7.2,30.05,WNW,302,1.0,3.0,86,0.00,,---,0.00,VWS V13.00,2013-01-26 07:52:00,
2013-01-26 02:57:00,10.5,7.2,30.05,WNW,302,0.0,3.0,86,0.00,,---,0.00,VWS V13.00,2013-01-26 07:57:00,
2013-01-26 03:02:00,10.3,6.9,30.05,WNW,302,0.0,3.0,86,0.00,,---,0.00,VWS V13.00,2013-01-26 08:02:00,
2013-01-26 03:07:00,10.1,6.8,30.05,WNW,302,2.0,2.0,86,0.00,,---,0.00,VWS V13.00,2013-01-26 08:07:00,
2013-01-26 03:12:00,9.9,6.8,30.05,WNW,302,0.0,3.0,87,0.00,,---,0.00,VWS V13.00,2013-01-26 08:12:00,
2013-01-26 03:17:00,9.9,6.8,30.05,WNW,302,0.0,5.0,87,0.00,,---,0.00,VWS V13.00,2013-01-26 08:17:00,
2013-01-26 03:22:00,9.9,6.8,30.05,WNW,302,3.0,5.0,87,0.00,,---,0.00,VWS V13.00,2013-01-26 08:22:00,
2013-01-26 03:27:00,9.8,6.7,30.05,WNW,302,1.0,5.0,87,0.00,,---,0.00,VWS V13.00,2013-01-26 08:27:00,
2013-01-26 03:32:00,9.8,6.7,30.05,NW,310,2.0,6.0,87,0.00,,---,0.00,VWS V13.00,2013-01-26 08:32:00,
2013-01-26 03:37:00,9.8,7.0,30.04,NW,312,1.0,3.0,88,0.00,,---,0.00,VWS V13.00,2013-01-26 08:37:00,
2013-01-26 03:42:00,9.8,7.0,30.05,NW,313,1.0,5.0,88,0.00,,---,0.00,VWS V13.00,2013-01-26 08:42:00,
2013-01-26 03:47:00,9.7,6.6,30.04,NW,312,2.0,5.0,87,0.00,,---,0.00,VWS V13.00,2013-01-26 08:47:00,
2013-01-26 03:52:00,9.6,6.5,30.04,NW,313,1.0,5.0,87,0.00,,---,0.00,VWS V13.00,2013-01-26 08:52:00,
2013-01-26 03:57:00,9.5,6.4,30.04,NW,313,0.0,5.0,87,0.00,,---,0.00,VWS V13.00,2013-01-26 08:57:00,
2013-01-26 04:02:00,9.4,6.3,30.04,NW,313,3.0,5.0,87,0.00,,---,0.00,VWS V13.00,2013-01-26 09:02:00,
2013-01-26 04:07:00,9.2,6.1,30.05,NW,313,4.0,4.0,87,0.00,,---,0.00,VWS V13.00,2013-01-26 09:07:00,
2013-01-26 04:12:00,9.1,5.8,30.05,NW,313,1.0,4.0,86,0.00,,---,0.00,VWS V13.00,2013-01-26 09:12:00,
2013-01-26 04:17:00,9.0,5.7,30.05,NW,313,1.0,4.0,86,0.00,,---,0.00,VWS V13.00,2013-01-26 09:17:00,
2013-01-26 04:22:00,8.9,5.6,30.05,NW,313,2.0,5.0,86,0.00,,---,0.00,VWS V13.00,2013-01-26 09:22:00,
2013-01-26 04:27:00,8.7,5.4,30.05,NW,313,0.0,5.0,86,0.00,,---,0.00,VWS V13.00,2013-01-26 09:27:00,
2013-01-26 04:32:00,8.6,5.3,30.05,NW,314,0.0,5.0,86,0.00,,---,0.00,VWS V13.00,2013-01-26 09:32:00,
2013-01-26 04:37:00,8.5,5.2,30.05,NW,314,2.0,4.0,86,0.00,,---,0.00,VWS V13.00,2013-01-26 09:37:00,
2013-01-26 04:42:00,8.4,5.1,30.04,NW,314,1.0,4.0,86,0.00,,---,0.00,VWS V13.00,2013-01-26 09:42:00,
2013-01-26 04:47:00,8.3,5.0,30.04,NW,313,0.0,4.0,86,0.00,,---,0.00,VWS V13.00,2013-01-26 09:47:00,
2013-01-26 04:52:00,8.2,4.9,30.04,NW,314,0.0,4.0,86,0.00,,---,0.00,VWS V13.00,2013-01-26 09:52:00,
2013-01-26 04:57:00,8.1,4.8,30.04,NW,314,0.0,5.0,86,0.00,,---,0.00,VWS V13.00,2013-01-26 09:57:00,
2013-01-26 05:02:00,7.8,4.5,30.05,NW,313,0.0,5.0,86,0.00,,---,0.00,VWS V13.00,2013-01-26 10:02:00,
2013-01-26 05:07:00,7.7,4.4,30.05,NW,314,0.0,1.0,86,0.00,,---,0.00,VWS V13.00,2013-01-26 10:07:00,
2013-01-26 05:12:00,7.5,4.2,30.05,NW,314,1.0,2.0,86,0.00,,---,0.00,VWS V13.00,2013-01-26 10:12:00,
2013-01-26 05:17:00,7.3,3.8,30.05,NW,314,0.0,4.0,85,0.00,,---,0.00,VWS V13.00,2013-01-26 10:17:00,
2013-01-26 05:22:00,7.2,3.9,30.05,NW,314,3.0,5.0,86,0.00,,---,0.00,VWS V13.00,2013-01-26 10:22:00,
2013-01-26 05:27:00,7.2,3.9,30.05,NW,315,2.0,6.0,86,0.00,,---,0.00,VWS V13.00,2013-01-26 10:27:00,
2013-01-26 05:32:00,7.3,4.0,30.05,NW,313,1.0,6.0,86,0.00,,---,0.00,VWS V13.00,2013-01-26 10:32:00,
2013-01-26 05:37:00,7.3,3.8,30.05,NW,315,7.0,7.0,85,0.00,,---,0.00,VWS V13.00,2013-01-26 10:37:00,
2013-01-26 05:42:00,7.5,3.9,30.05,NW,316,2.0,7.0,85,0.00,,---,0.00,VWS V13.00,2013-01-26 10:42:00,
2013-01-26 05:47:00,7.6,4.0,30.06,NW,316,2.0,7.0,85,0.00,,---,0.00,VWS V13.00,2013-01-26 10:47:00,
2013-01-26 05:52:00,7.6,4.0,30.06,NW,311,0.0,7.0,85,0.00,,---,0.00,VWS V13.00,2013-01-26 10:52:00,
2013-01-26 05:57:00,7.6,3.8,30.06,NNW,329,2.0,7.0,84,0.00,,---,0.00,VWS V13.00,2013-01-26 10:57:00,
2013-01-26 06:02:00,7.6,3.8,30.06,NNW,333,3.0,7.0,84,0.00,,---,0.00,VWS V13.00,2013-01-26 11:02:00,
2013-01-26 06:07:00,7.6,3.8,30.07,NNW,331,0.0,2.0,84,0.00,,---,0.00,VWS V13.00,2013-01-26 11:07:00,
2013-01-26 06:12:00,7.6,3.5,30.07,NNW,330,1.0,4.0,83,0.00,,---,0.00,VWS V13.00,2013-01-26 11:12:00,
2013-01-26 06:17:00,7.5,3.4,30.07,NW,325,2.0,5.0,83,0.00,,---,0.00,VWS V13.00,2013-01-26 11:17:00,
2013-01-26 06:22:00,7.4,3.3,30.08,NW,321,0.0,5.0,83,0.00,,---,0.00,VWS V13.00,2013-01-26 11:22:00,
2013-01-26 06:27:00,7.4,3.3,30.07,NW,321,3.0,5.0,83,0.00,,---,0.00,VWS V13.00,2013-01-26 11:27:00,
2013-01-26 06:32:00,7.4,3.3,30.07,NW,321,1.0,5.0,83,0.00,,---,0.00,VWS V13.00,2013-01-26 11:32:00,
2013-01-26 06:37:00,7.3,3.2,30.08,NW,318,0.0,1.0,83,0.00,,---,0.00,VWS V13.00,2013-01-26 11:37:00,
2013-01-26 06:42:00,7.3,3.2,30.08,NW,311,3.0,5.0,83,0.00,,---,0.00,VWS V13.00,2013-01-26 11:42:00,
2013-01-26 06:47:00,7.4,3.1,30.08,WNW,288,3.0,6.0,82,0.00,,---,0.00,VWS V13.00,2013-01-26 11:47:00,
2013-01-26 06:52:00,7.4,3.1,30.08,WNW,294,1.0,6.0,82,0.00,,---,0.00,VWS V13.00,2013-01-26 11:52:00,
2013-01-26 06:57:00,7.4,3.1,30.08,WNW,294,1.0,6.0,82,0.00,,---,0.00,VWS V13.00,2013-01-26 11:57:00,
2013-01-26 07:02:00,7.2,2.6,30.08,WNW,294,0.0,6.0,81,0.00,,---,0.00,VWS V13.00,2013-01-26 12:02:00,
2013-01-26 07:07:00,7.1,2.8,30.08,WNW,294,0.0,0.0,82,0.00,,---,0.00,VWS V13.00,2013-01-26 12:07:00,
2013-01-26 07:12:00,7.0,2.7,30.09,WNW,294,0.0,3.0,82,0.00,,---,0.00,VWS V13.00,2013-01-26 12:12:00,
2013-01-26 07:17:00,6.9,2.6,30.09,WNW,294,0.0,3.0,82,0.00,,---,0.00,VWS V13.00,2013-01-26 12:17:00,
2013-01-26 07:22:00,6.8,2.5,30.09,WNW,294,0.0,3.0,82,0.00,,---,0.00,VWS V13.00,2013-01-26 12:22:00,
2013-01-26 07:27:00,6.8,2.5,30.09,WNW,294,1.0,4.0,82,0.00,,---,0.00,VWS V13.00,2013-01-26 12:27:00,
2013-01-26 07:32:00,6.8,2.5,30.09,WNW,301,1.0,7.0,82,0.00,,---,0.00,VWS V13.00,2013-01-26 12:32:00,
2013-01-26 07:37:00,6.8,2.5,30.09,WNW,300,1.0,2.0,82,0.00,,---,0.00,VWS V13.00,2013-01-26 12:37:00,
2013-01-26 07:42:00,6.9,2.6,30.09,NW,319,0.0,9.0,82,0.00,,---,0.00,VWS V13.00,2013-01-26 12:42:00,
2013-01-26 07:47:00,7.1,2.5,30.09,NW,325,2.0,9.0,81,0.00,,---,0.00,VWS V13.00,2013-01-26 12:47:00,
2013-01-26 07:52:00,7.2,2.6,30.09,NW,326,1.0,9.0,81,0.00,,---,0.00,VWS V13.00,2013-01-26 12:52:00,
2013-01-26 07:57:00,7.3,2.7,30.10,NW,326,2.0,9.0,81,0.00,,---,0.00,VWS V13.00,2013-01-26 12:57:00,
2013-01-26 08:02:00,7.4,2.8,30.10,NW,325,2.0,9.0,81,0.00,,---,0.00,VWS V13.00,2013-01-26 13:02:00,
2013-01-26 08:07:00,7.6,2.7,30.09,NW,325,2.0,5.0,80,0.00,,---,0.00,VWS V13.00,2013-01-26 13:07:00,
2013-01-26 08:12:00,7.8,2.9,30.09,NW,322,3.0,11.0,80,0.00,,---,0.00,VWS V13.00,2013-01-26 13:12:00,
2013-01-26 08:17:00,8.1,3.2,30.09,NW,311,0.0,11.0,80,0.00,,---,0.00,VWS V13.00,2013-01-26 13:17:00,
2013-01-26 08:22:00,8.3,3.1,30.09,NNW,333,1.0,11.0,79,0.00,,---,0.00,VWS V13.00,2013-01-26 13:22:00,
2013-01-26 08:27:00,8.6,3.4,30.09,NW,323,3.0,11.0,79,0.00,,---,0.00,VWS V13.00,2013-01-26 13:27:00,
2013-01-26 08:32:00,8.9,3.5,30.10,WNW,293,1.0,11.0,78,0.00,,---,0.00,VWS V13.00,2013-01-26 13:32:00,
2013-01-26 08:37:00,9.1,3.7,30.10,NW,304,5.0,5.0,78,0.00,,---,0.00,VWS V13.00,2013-01-26 13:37:00,
2013-01-26 08:42:00,9.3,3.6,30.10,NW,326,1.0,9.0,77,0.00,,---,0.00,VWS V13.00,2013-01-26 13:42:00,
2013-01-26 08:47:00,9.6,3.6,30.10,NW,326,0.0,9.0,76,0.00,,---,0.00,VWS V13.00,2013-01-26 13:47:00,
2013-01-26 08:52:00,9.9,3.9,30.10,NW,309,2.0,9.0,76,0.00,,---,0.00,VWS V13.00,2013-01-26 13:52:00,
2013-01-26 08:57:00,10.2,3.9,30.09,NNW,329,1.0,9.0,75,0.00,,---,0.00,VWS V13.00,2013-01-26 13:57:00,
2013-01-26 09:02:00,10.6,4.0,30.10,NW,323,3.0,9.0,74,0.00,,---,0.00,VWS V13.00,2013-01-26 14:02:00,
2013-01-26 09:07:00,11.0,4.3,30.10,North,360,2.0,3.0,74,0.00,,---,0.00,VWS V13.00,2013-01-26 14:07:00,
2013-01-26 09:12:00,11.4,4.4,30.10,NNW,341,2.0,10.0,73,0.00,,---,0.00,VWS V13.00,2013-01-26 14:12:00,
2013-01-26 09:17:00,12.3,5.0,30.10,WNW,296,3.0,10.0,72,0.00,,---,0.00,VWS V13.00,2013-01-26 14:17:00,
2013-01-26 09:22:00,13.2,5.3,30.10,North,350,3.0,10.0,70,0.00,,---,0.00,VWS V13.00,2013-01-26 14:22:00,
2013-01-26 09:27:00,13.8,5.2,30.10,NNW,338,6.0,10.0,68,0.00,,---,0.00,VWS V13.00,2013-01-26 14:27:00,
2013-01-26 09:32:00,14.4,5.1,30.11,NNW,329,11.0,11.0,66,0.00,,---,0.00,VWS V13.00,2013-01-26 14:32:00,
2013-01-26 09:37:00,14.5,4.6,30.11,NW,325,2.0,3.0,64,0.00,,---,0.00,VWS V13.00,2013-01-26 14:37:00,
2013-01-26 09:42:00,14.7,4.4,30.11,NNW,345,6.0,11.0,63,0.00,,---,0.00,VWS V13.00,2013-01-26 14:42:00,
2013-01-26 09:47:00,15.2,4.9,30.10,NW,321,6.0,11.0,63,0.00,,---,0.00,VWS V13.00,2013-01-26 14:47:00,
2013-01-26 09:52:00,15.5,4.5,30.10,WNW,297,1.0,12.0,61,0.00,,---,0.00,VWS V13.00,2013-01-26 14:52:00,
2013-01-26 09:57:00,15.8,4.4,30.10,NW,307,3.0,12.0,60,0.00,,---,0.00,VWS V13.00,2013-01-26 14:57:00,
2013-01-26 10:02:00,16.0,4.6,30.10,NW,325,6.0,12.0,60,0.00,,---,0.00,VWS V13.00,2013-01-26 15:02:00,
2013-01-26 10:07:00,15.9,3.8,30.11,West,277,3.0,3.0,58,0.00,,---,0.00,VWS V13.00,2013-01-26 15:07:00,
2013-01-26 10:12:00,15.8,3.3,30.11,NW,323,3.0,10.0,57,0.00,,---,0.00,VWS V13.00,2013-01-26 15:12:00,
2013-01-26 10:17:00,16.0,3.5,30.11,WNW,294,2.0,10.0,57,0.00,,---,0.00,VWS V13.00,2013-01-26 15:17:00,
2013-01-26 10:22:00,16.6,4.4,30.11,WNW,299,6.0,10.0,58,0.00,,---,0.00,VWS V13.00,2013-01-26 15:22:00,
2013-01-26 10:27:00,17.0,3.6,30.11,WNW,286,2.0,10.0,55,0.00,,---,0.00,VWS V13.00,2013-01-26 15:27:00,
2013-01-26 10:32:00,16.9,3.5,30.11,WNW,284,5.0,11.0,55,0.00,,---,0.00,VWS V13.00,2013-01-26 15:32:00,
2013-01-26 10:37:00,17.3,3.9,30.10,West,280,4.0,4.0,55,0.00,,---,0.00,VWS V13.00,2013-01-26 15:37:00,
2013-01-26 10:42:00,17.3,2.7,30.10,WNW,298,11.0,11.0,52,0.00,,---,0.00,VWS V13.00,2013-01-26 15:42:00,
2013-01-26 10:47:00,17.1,2.1,30.10,NW,318,3.0,11.0,51,0.00,,---,0.00,VWS V13.00,2013-01-26 15:47:00,
2013-01-26 10:52:00,17.4,2.8,30.10,West,273,1.0,11.0,52,0.00,,---,0.00,VWS V13.00,2013-01-26 15:52:00,
2013-01-26 10:57:00,18.2,2.7,30.09,NW,308,1.0,11.0,50,0.00,,---,0.00,VWS V13.00,2013-01-26 15:57:00,
2013-01-26 11:02:00,18.9,2.9,30.09,WNW,302,3.0,12.0,49,0.00,,---,0.00,VWS V13.00,2013-01-26 16:02:00,
2013-01-26 11:07:00,18.7,2.3,30.09,NW,325,2.0,4.0,48,0.00,,---,0.00,VWS V13.00,2013-01-26 16:07:00,
2013-01-26 11:12:00,18.4,2.0,30.09,WNW,283,6.0,13.0,48,0.00,,---,0.00,VWS V13.00,2013-01-26 16:12:00,
2013-01-26 11:17:00,18.0,1.6,30.09,NW,322,2.0,13.0,48,0.00,,---,0.00,VWS V13.00,2013-01-26 16:17:00,
2013-01-26 11:22:00,18.4,2.0,30.09,WNW,288,2.0,13.0,48,0.00,,---,0.00,VWS V13.00,2013-01-26 16:22:00,
2013-01-26 11:27:00,18.6,1.7,30.08,NW,310,7.0,13.0,47,0.00,,---,0.00,VWS V13.00,2013-01-26 16:27:00,
2013-01-26 11:32:00,18.7,2.3,30.08,WNW,294,5.0,13.0,48,0.00,,---,0.00,VWS V13.00,2013-01-26 16:32:00,
2013-01-26 11:37:00,19.3,2.8,30.08,NW,307,1.0,2.0,48,0.00,,---,0.00,VWS V13.00,2013-01-26 16:37:00,
2013-01-26 11:42:00,19.8,2.4,30.08,WNW,303,9.0,11.0,46,0.00,,---,0.00,VWS V13.00,2013-01-26 16:42:00,
2013-01-26 11:47:00,20.1,1.7,30.08,NNW,331,5.0,11.0,44,0.00,,---,0.00,VWS V13.00,2013-01-26 16:47:00,
2013-01-26 11:52:00,20.3,1.4,30.08,WNW,298,2.0,12.0,43,0.00,,---,0.00,VWS V13.00,2013-01-26 16:52:00,
2013-01-26 11:57:00,20.1,0.2,30.08,WNW,294,6.0,15.0,41,0.00,,---,0.00,VWS V13.00,2013-01-26 16:57:00,
2013-01-26 12:02:00,20.1,0.2,30.08,West,278,3.0,15.0,41,0.00,,---,0.00,VWS V13.00,2013-01-26 17:02:00,
2013-01-26 12:07:00,20.4,1.5,30.08,WNW,303,9.0,9.0,43,0.00,,---,0.00,VWS V13.00,2013-01-26 17:07:00,
2013-01-26 12:12:00,20.2,0.3,30.08,NW,313,6.0,11.0,41,0.00,,---,0.00,VWS V13.00,2013-01-26 17:12:00,
2013-01-26 12:17:00,20.6,1.2,30.07,West,281,2.0,12.0,42,0.00,,---,0.00,VWS V13.00,2013-01-26 17:17:00,
2013-01-26 12:22:00,20.7,0.2,30.07,West,277,4.0,12.0,40,0.00,,---,0.00,VWS V13.00,2013-01-26 17:22:00,
2013-01-26 12:27:00,20.4,-0.6,30.07,NW,312,5.0,12.0,39,0.00,,---,0.00,VWS V13.00,2013-01-26 17:27:00,
2013-01-26 12:32:00,20.7,1.2,30.07,West,276,2.0,12.0,42,0.00,,---,0.00,VWS V13.00,2013-01-26 17:32:00,
2013-01-26 12:37:00,21.3,0.2,30.07,North,5,1.0,1.0,39,0.00,,---,0.00,VWS V13.00,2013-01-26 17:37:00,
2013-01-26 12:42:00,21.6,0.5,30.07,WNW,299,6.0,7.0,39,0.00,,---,0.00,VWS V13.00,2013-01-26 17:42:00,
2013-01-26 12:47:00,21.7,1.1,30.07,WNW,296,4.0,9.0,40,0.00,,---,0.00,VWS V13.00,2013-01-26 17:47:00,
2013-01-26 12:52:00,21.8,0.7,30.07,NW,316,3.0,10.0,39,0.00,,---,0.00,VWS V13.00,2013-01-26 17:52:00,
2013-01-26 12:57:00,21.6,0.5,30.07,WNW,284,3.0,12.0,39,0.00,,---,0.00,VWS V13.00,2013-01-26 17:57:00,
2013-01-26 13:02:00,20.9,-0.2,30.07,West,267,10.0,12.0,39,0.00,,---,0.00,VWS V13.00,2013-01-26 18:02:00,
2013-01-26 13:07:00,19.9,-1.0,30.07,West,278,1.0,1.0,39,0.00,,---,0.00,VWS V13.00,2013-01-26 18:07:00,
2013-01-26 13:12:00,19.7,-0.2,30.07,WNW,293,3.0,11.0,41,0.00,,---,0.00,VWS V13.00,2013-01-26 18:12:00,
2013-01-26 13:17:00,19.7,-0.2,30.07,West,279,4.0,11.0,41,0.00,,---,0.00,VWS V13.00,2013-01-26 18:17:00,
2013-01-26 13:22:00,19.5,-0.4,30.07,WNW,284,5.0,11.0,41,0.00,,---,0.00,VWS V13.00,2013-01-26 18:22:00,
2013-01-26 13:27:00,19.7,-0.2,30.07,NW,306,2.0,13.0,41,0.00,,---,0.00,VWS V13.00,2013-01-26 18:27:00,
2013-01-26 13:32:00,19.9,0.0,30.07,WNW,282,1.0,13.0,41,0.00,,---,0.00,VWS V13.00,2013-01-26 18:32:00,
2013-01-26 13:37:00,20.4,0.5,30.07,WNW,288,2.0,2.0,41,0.00,,---,0.00,VWS V13.00,2013-01-26 18:37:00,
2013-01-26 13:42:00,20.8,0.8,30.08,WNW,299,5.0,13.0,41,0.00,,---,0.00,VWS V13.00,2013-01-26 18:42:00,
2013-01-26 13:47:00,20.2,-0.8,30.07,NW,314,4.0,14.0,39,0.00,,---,0.00,VWS V13.00,2013-01-26 18:47:00,
2013-01-26 13:52:00,19.9,0.0,30.08,WNW,302,10.0,14.0,41,0.00,,---,0.00,VWS V13.00,2013-01-26 18:52:00,
2013-01-26 13:57:00,20.2,1.3,30.08,NNW,337,11.0,14.0,43,0.00,,---,0.00,VWS V13.00,2013-01-26 18:57:00,
2013-01-26 14:02:00,20.3,0.4,30.08,WNW,290,0.0,14.0,41,0.00,,---,0.00,VWS V13.00,2013-01-26 19:02:00,
2013-01-26 14:07:00,20.4,1.0,30.08,WNW,292,2.0,2.0,42,0.00,,---,0.00,VWS V13.00,2013-01-26 19:07:00,
2013-01-26 14:12:00,21.0,1.5,30.08,West,281,1.0,7.0,42,0.00,,---,0.00,VWS V13.00,2013-01-26 19:12:00,
2013-01-26 14:17:00,20.9,0.9,30.08,NW,313,4.0,10.0,41,0.00,,---,0.00,VWS V13.00,2013-01-26 19:17:00,
2013-01-26 14:22:00,20.8,0.8,30.08,NNW,347,3.0,11.0,41,0.00,,---,0.00,VWS V13.00,2013-01-26 19:22:00,
2013-01-26 14:27:00,20.6,-0.4,30.08,West,277,6.0,15.0,39,0.00,,---,0.00,VWS V13.00,2013-01-26 19:27:00,
2013-01-26 14:32:00,20.1,-0.9,30.08,WNW,287,6.0,15.0,39,0.00,,---,0.00,VWS V13.00,2013-01-26 19:32:00,
2013-01-26 14:37:00,19.9,-0.5,30.09,WNW,284,3.0,3.0,40,0.00,,---,0.00,VWS V13.00,2013-01-26 19:37:00,
2013-01-26 14:42:00,20.4,0.5,30.09,NW,315,3.0,8.0,41,0.00,,---,0.00,VWS V13.00,2013-01-26 19:42:00,
2013-01-26 14:47:00,20.3,-0.2,30.10,NW,325,10.0,14.0,40,0.00,,---,0.00,VWS V13.00,2013-01-26 19:47:00,
2013-01-26 14:52:00,20.0,-0.4,30.10,WNW,289,4.0,14.0,40,0.00,,---,0.00,VWS V13.00,2013-01-26 19:52:00,
2013-01-26 14:57:00,19.7,-1.2,30.10,NW,323,3.0,16.0,39,0.00,,---,0.00,VWS V13.00,2013-01-26 19:57:00,
2013-01-26 15:02:00,19.7,-0.2,30.10,North,10,4.0,16.0,41,0.00,,---,0.00,VWS V13.00,2013-01-26 20:02:00,
2013-01-26 15:07:00,19.7,-1.2,30.11,WNW,292,5.0,6.0,39,0.00,,---,0.00,VWS V13.00,2013-01-26 20:07:00,
2013-01-26 15:12:00,19.7,-2.3,30.11,WNW,290,4.0,16.0,37,0.00,,---,0.00,VWS V13.00,2013-01-26 20:12:00,
2013-01-26 15:17:00,19.7,-1.8,30.11,NW,314,5.0,17.0,38,0.00,,---,0.00,VWS V13.00,2013-01-26 20:17:00,
2013-01-26 15:22:00,19.7,-0.7,30.11,West,275,7.0,17.0,40,0.00,,---,0.00,VWS V13.00,2013-01-26 20:22:00,
2013-01-26 15:27:00,19.7,-1.2,30.11,NW,311,3.0,17.0,39,0.00,,---,0.00,VWS V13.00,2013-01-26 20:27:00,
2013-01-26 15:32:00,19.7,-1.2,30.11,NW,315,2.0,17.0,39,0.00,,---,0.00,VWS V13.00,2013-01-26 20:32:00,
2013-01-26 15:37:00,19.6,-1.3,30.11,NNW,329,1.0,1.0,39,0.00,,---,0.00,VWS V13.00,2013-01-26 20:37:00,
2013-01-26 15:42:00,19.0,-2.4,30.12,NW,313,4.0,16.0,38,0.00,,---,0.00,VWS V13.00,2013-01-26 20:42:00,
2013-01-26 15:47:00,18.5,-2.3,30.12,NNW,338,3.0,16.0,39,0.00,,---,0.00,VWS V13.00,2013-01-26 20:47:00,
2013-01-26 15:52:00,18.6,-1.7,30.12,NW,320,6.0,16.0,40,0.00,,---,0.00,VWS V13.00,2013-01-26 20:52:00,
2013-01-26 15:57:00,18.5,-1.8,30.12,NW,322,2.0,16.0,40,0.00,,---,0.00,VWS V13.00,2013-01-26 20:57:00,
2013-01-26 16:02:00,18.2,-2.1,30.13,NNW,330,3.0,16.0,40,0.00,,---,0.00,VWS V13.00,2013-01-26 21:02:00,
2013-01-26 16:07:00,18.0,-1.7,30.13,WNW,298,3.0,4.0,41,0.00,,---,0.00,VWS V13.00,2013-01-26 21:07:00,
2013-01-26 16:12:00,17.7,-2.0,30.13,WNW,284,2.0,6.0,41,0.00,,---,0.00,VWS V13.00,2013-01-26 21:12:00,
2013-01-26 16:17:00,17.5,-1.7,30.13,WNW,283,2.0,10.0,42,0.00,,---,0.00,VWS V13.00,2013-01-26 21:17:00,
2013-01-26 16:22:00,17.3,-1.9,30.13,North,355,0.0,13.0,42,0.00,,---,0.00,VWS V13.00,2013-01-26 21:22:00,
2013-01-26 16:27:00,17.1,-2.0,30.14,NNW,345,0.0,13.0,42,0.00,,---,0.00,VWS V13.00,2013-01-26 21:27:00,
2013-01-26 16:32:00,17.0,-2.6,30.14,WNW,286,0.0,13.0,41,0.00,,---,0.00,VWS V13.00,2013-01-26 21:32:00,
2013-01-26 16:37:00,16.9,-2.2,30.14,West,281,6.0,9.0,42,0.00,,---,0.00,VWS V13.00,2013-01-26 21:37:00,
2013-01-26 16:42:00,16.7,-3.4,30.14,WNW,294,12.0,17.0,40,0.00,,---,0.00,VWS V13.00,2013-01-26 21:42:00,
2013-01-26 16:47:00,16.5,-3.6,30.15,WNW,302,3.0,17.0,40,0.00,,---,0.00,VWS V13.00,2013-01-26 21:47:00,
2013-01-26 16:52:00,16.4,-3.7,30.15,West,281,2.0,17.0,40,0.00,,---,0.00,VWS V13.00,2013-01-26 21:52:00,
2013-01-26 16:57:00,16.2,-3.3,30.15,WNW,297,6.0,17.0,41,0.00,,---,0.00,VWS V13.00,2013-01-26 21:57:00,
2013-01-26 17:02:00,16.1,-2.9,30.15,NW,321,2.0,17.0,42,0.00,,---,0.00,VWS V13.00,2013-01-26 22:02:00,
2013-01-26 17:07:00,15.9,-3.1,30.15,WNW,294,6.0,7.0,42,0.00,,---,0.00,VWS V13.00,2013-01-26 22:07:00,
2013-01-26 17:12:00,15.8,-3.2,30.15,West,281,4.0,9.0,42,0.00,,---,0.00,VWS V13.00,2013-01-26 22:12:00,
2013-01-26 17:17:00,15.7,-3.3,30.15,WNW,299,0.0,9.0,42,0.00,,---,0.00,VWS V13.00,2013-01-26 22:17:00,
2013-01-26 17:22:00,15.7,-2.8,30.15,WNW,298,3.0,9.0,43,0.00,,---,0.00,VWS V13.00,2013-01-26 22:22:00,
2013-01-26 17:27:00,15.7,-2.3,30.15,NW,315,5.0,9.0,44,0.00,,---,0.00,VWS V13.00,2013-01-26 22:27:00,
2013-01-26 17:32:00,15.6,-2.9,30.16,WNW,286,5.0,13.0,43,0.00,,---,0.00,VWS V13.00,2013-01-26 22:32:00,
2013-01-26 17:37:00,15.5,-3.5,30.16,WNW,297,2.0,3.0,42,0.00,,---,0.00,VWS V13.00,2013-01-26 22:37:00,
2013-01-26 17:42:00,15.4,-4.1,30.16,West,275,6.0,18.0,41,0.00,,---,0.00,VWS V13.00,2013-01-26 22:42:00,
2013-01-26 17:47:00,15.3,-4.2,30.16,West,277,6.0,19.0,41,0.00,,---,0.00,VWS V13.00,2013-01-26 22:47:00,
2013-01-26 17:52:00,15.1,-4.9,30.17,NNW,329,5.0,19.0,40,0.00,,---,0.00,VWS V13.00,2013-01-26 22:52:00,
2013-01-26 17:57:00,14.9,-4.5,30.17,NNW,338,10.0,19.0,41,0.00,,---,0.00,VWS V13.00,2013-01-26 22:57:00,
2013-01-26 18:02:00,14.7,-4.2,30.17,NW,323,4.0,19.0,42,0.00,,---,0.00,VWS V13.00,2013-01-26 23:02:00,
2013-01-26 18:07:00,14.5,-4.4,30.17,West,281,0.0,1.0,42,0.00,,---,0.00,VWS V13.00,2013-01-26 23:07:00,
2013-01-26 18:12:00,14.3,-4.1,30.18,NNW,344,1.0,18.0,43,0.00,,---,0.00,VWS V13.00,2013-01-26 23:12:00,
2013-01-26 18:17:00,14.1,-4.3,30.18,WNW,302,4.0,18.0,43,0.00,,---,0.00,VWS V13.00,2013-01-26 23:17:00,
2013-01-26 18:22:00,13.9,-4.5,30.18,WNW,288,3.0,18.0,43,0.00,,---,0.00,VWS V13.00,2013-01-26 23:22:00,
2013-01-26 18:27:00,13.9,-4.0,30.18,WNW,285,7.0,18.0,44,0.00,,---,0.00,VWS V13.00,2013-01-26 23:27:00,
2013-01-26 18:32:00,13.8,-3.6,30.18,WNW,295,4.0,18.0,45,0.00,,---,0.00,VWS V13.00,2013-01-26 23:32:00,
2013-01-26 18:37:00,13.7,-3.7,30.18,NNW,334,3.0,5.0,45,0.00,,---,0.00,VWS V13.00,2013-01-26 23:37:00,
2013-01-26 18:42:00,13.6,-3.3,30.19,WNW,283,4.0,18.0,46,0.00,,---,0.00,VWS V13.00,2013-01-26 23:42:00,
2013-01-26 18:47:00,13.6,-2.9,30.19,WNW,293,2.0,20.0,47,0.00,,---,0.00,VWS V13.00,2013-01-26 23:47:00,
2013-01-26 18:52:00,13.4,-2.2,30.19,WNW,289,4.0,20.0,49,0.00,,---,0.00,VWS V13.00,2013-01-26 23:52:00,
2013-01-26 18:57:00,13.2,-2.0,30.20,NNE,14,5.0,20.0,50,0.00,,---,0.00,VWS V13.00,2013-01-26 23:57:00,
2013-01-26 19:02:00,13.1,-1.6,30.20,NW,305,6.0,20.0,51,0.00,,---,0.00,VWS V13.00,2013-01-27 00:02:00,
2013-01-26 19:07:00,13.0,-1.3,30.20,NW,320,4.0,5.0,52,0.00,,---,0.00,VWS V13.00,2013-01-27 00:07:00,
2013-01-26 19:12:00,12.9,-1.0,30.20,NW,311,2.0,11.0,53,0.00,,---,0.00,VWS V13.00,2013-01-27 00:12:00,
2013-01-26 19:17:00,12.8,-1.1,30.20,WNW,303,7.0,14.0,53,0.00,,---,0.00,VWS V13.00,2013-01-27 00:17:00,
2013-01-26 19:22:00,12.7,-1.2,30.20,NW,304,5.0,14.0,53,0.00,,---,0.00,VWS V13.00,2013-01-27 00:22:00,
2013-01-26 19:27:00,12.6,-0.5,30.20,WNW,294,9.0,14.0,55,0.00,,---,0.00,VWS V13.00,2013-01-27 00:27:00,
2013-01-26 19:32:00,12.6,-0.5,30.20,WNW,289,3.0,14.0,55,0.00,,---,0.00,VWS V13.00,2013-01-27 00:32:00,
2013-01-26 19:37:00,12.4,-0.3,30.21,NW,315,9.0,14.0,56,0.00,,---,0.00,VWS V13.00,2013-01-27 00:37:00,
2013-01-26 19:42:00,12.4,-0.3,30.21,West,275,7.0,11.0,56,0.00,,---,0.00,VWS V13.00,2013-01-27 00:42:00,
2013-01-26 19:47:00,12.3,0.0,30.20,West,278,4.0,12.0,57,0.00,,---,0.00,VWS V13.00,2013-01-27 00:47:00,
2013-01-26 19:52:00,12.3,0.0,30.20,WNW,298,2.0,12.0,57,0.00,,---,0.00,VWS V13.00,2013-01-27 00:52:00,
2013-01-26 19:57:00,12.3,0.3,30.20,NNW,340,5.0,13.0,58,0.00,,---,0.00,VWS V13.00,2013-01-27 00:57:00,
2013-01-26 20:02:00,12.2,0.3,30.20,WNW,290,5.0,13.0,58,0.00,,---,0.00,VWS V13.00,2013-01-27 01:02:00,
2013-01-26 20:07:00,12.2,0.3,30.20,West,277,5.0,5.0,58,0.00,,---,0.00,VWS V13.00,2013-01-27 01:07:00,
2013-01-26 20:12:00,12.2,0.3,30.20,WNW,298,2.0,17.0,58,0.00,,---,0.00,VWS V13.00,2013-01-27 01:12:00,
2013-01-26 20:17:00,12.2,0.6,30.20,WNW,291,1.0,17.0,59,0.00,,---,0.00,VWS V13.00,2013-01-27 01:17:00,
2013-01-26 20:22:00,12.2,0.6,30.20,WNW,287,5.0,17.0,59,0.00,,---,0.00,VWS V13.00,2013-01-27 01:22:00,
2013-01-26 20:27:00,12.1,0.5,30.20,NW,322,3.0,17.0,59,0.00,,---,0.00,VWS V13.00,2013-01-27 01:27:00,
2013-01-26 20:32:00,12.0,0.8,30.21,West,266,2.0,17.0,60,0.00,,---,0.00,VWS V13.00,2013-01-27 01:32:00,
2013-01-26 20:37:00,11.8,1.0,30.21,NW,305,5.0,17.0,61,0.00,,---,0.00,VWS V13.00,2013-01-27 01:37:00,
2013-01-26 20:42:00,11.8,1.0,30.21,NW,326,3.0,13.0,61,0.00,,---,0.00,VWS V13.00,2013-01-27 01:42:00,
2013-01-26 20:47:00,11.8,1.3,30.21,NNW,338,7.0,13.0,62,0.00,,---,0.00,VWS V13.00,2013-01-27 01:47:00,
2013-01-26 20:52:00,11.6,1.1,30.21,NW,316,4.0,13.0,62,0.00,,---,0.00,VWS V13.00,2013-01-27 01:52:00,
2013-01-26 20:57:00,11.6,1.5,30.21,WNW,302,5.0,13.0,63,0.00,,---,0.00,VWS V13.00,2013-01-27 01:57:00,
2013-01-26 21:02:00,11.6,1.5,30.21,West,275,3.0,17.0,63,0.00,,---,0.00,VWS V13.00,2013-01-27 02:02:00,
2013-01-26 21:07:00,11.6,1.5,30.21,WNW,299,4.0,17.0,63,0.00,,---,0.00,VWS V13.00,2013-01-27 02:07:00,
2013-01-26 21:12:00,11.6,1.5,30.21,NNW,331,3.0,14.0,63,0.00,,---,0.00,VWS V13.00,2013-01-27 02:12:00,
2013-01-26 21:17:00,11.6,1.8,30.21,WNW,300,5.0,14.0,64,0.00,,---,0.00,VWS V13.00,2013-01-27 02:17:00,
2013-01-26 21:22:00,11.5,1.7,30.20,NW,310,1.0,14.0,64,0.00,,---,0.00,VWS V13.00,2013-01-27 02:22:00,
2013-01-26 21:27:00,11.6,1.8,30.21,WNW,302,6.0,14.0,64,0.00,,---,0.00,VWS V13.00,2013-01-27 02:27:00,
2013-01-26 21:32:00,11.7,1.9,30.21,West,272,7.0,14.0,64,0.00,,---,0.00,VWS V13.00,2013-01-27 02:32:00,
2013-01-26 21:37:00,11.7,1.9,30.21,NW,322,1.0,14.0,64,0.00,,---,0.00,VWS V13.00,2013-01-27 02:37:00,
2013-01-26 21:42:00,11.5,2.0,30.21,WNW,295,9.0,11.0,65,0.00,,---,0.00,VWS V13.00,2013-01-27 02:42:00,
2013-01-26 21:47:00,11.5,2.0,30.21,NW,310,3.0,13.0,65,0.00,,---,0.00,VWS V13.00,2013-01-27 02:47:00,
2013-01-26 21:52:00,11.5,2.4,30.21,NW,313,4.0,13.0,66,0.00,,---,0.00,VWS V13.00,2013-01-27 02:52:00,
2013-01-26 21:57:00,11.6,2.5,30.21,WNW,291,5.0,13.0,66,0.00,,---,0.00,VWS V13.00,2013-01-27 02:57:00,
2013-01-26 22:02:00,11.6,2.5,30.22,NW,323,1.0,13.0,66,0.00,,---,0.00,VWS V13.00,2013-01-27 03:02:00,
2013-01-26 22:07:00,11.6,2.5,30.21,NW,307,2.0,17.0,66,0.00,,---,0.00,VWS V13.00,2013-01-27 03:07:00,
2013-01-26 22:12:00,11.6,2.5,30.21,WNW,291,2.0,10.0,66,0.00,,---,0.00,VWS V13.00,2013-01-27 03:12:00,
2013-01-26 22:17:00,11.6,2.8,30.22,West,276,3.0,18.0,67,0.00,,---,0.00,VWS V13.00,2013-01-27 03:17:00,
2013-01-26 22:22:00,11.6,2.8,30.22,NNW,337,2.0,18.0,67,0.00,,---,0.00,VWS V13.00,2013-01-27 03:22:00,
2013-01-26 22:27:00,11.6,2.8,30.22,WNW,302,3.0,18.0,67,0.00,,---,0.00,VWS V13.00,2013-01-27 03:27:00,
2013-01-26 22:32:00,11.7,2.9,30.23,WNW,284,2.0,18.0,67,0.00,,---,0.00,VWS V13.00,2013-01-27 03:32:00,
2013-01-26 22:37:00,11.7,2.9,30.23,NW,310,2.0,18.0,67,0.00,,---,0.00,VWS V13.00,2013-01-27 03:37:00,
2013-01-26 22:42:00,11.5,3.0,30.24,West,277,4.0,12.0,68,0.00,,---,0.00,VWS V13.00,2013-01-27 03:42:00,
2013-01-26 22:47:00,11.5,3.0,30.24,NW,321,4.0,13.0,68,0.00,,---,0.00,VWS V13.00,2013-01-27 03:47:00,
2013-01-26 22:52:00,11.4,3.2,30.24,NW,304,2.0,13.0,69,0.00,,---,0.00,VWS V13.00,2013-01-27 03:52:00,
2013-01-26 22:56:00,11.3,3.1,30.24,NW,325,4.0,13.0,69,0.00,,---,0.00,VWS V13.00,2013-01-27 03:56:00,
2013-01-26 23:01:00,11.3,3.1,30.24,WNW,287,2.0,13.0,69,0.00,,---,0.00,VWS V13.00,2013-01-27 04:01:00,
2013-01-26 23:06:00,11.2,3.0,30.24,WNW,290,5.0,14.0,69,0.00,,---,0.00,VWS V13.00,2013-01-27 04:06:00,
2013-01-26 23:11:00,11.2,3.0,30.24,West,273,2.0,13.0,69,0.00,,---,0.00,VWS V13.00,2013-01-27 04:11:00,
2013-01-26 23:16:00,11.4,3.2,30.24,NNW,327,5.0,13.0,69,0.00,,---,0.00,VWS V13.00,2013-01-27 04:16:00,
2013-01-26 23:21:00,11.6,3.4,30.24,West,275,10.0,13.0,69,0.00,,---,0.00,VWS V13.00,2013-01-27 04:21:00,
2013-01-26 23:26:00,11.5,3.3,30.24,NW,321,3.0,13.0,69,0.00,,---,0.00,VWS V13.00,2013-01-27 04:26:00,
2013-01-26 23:31:00,11.5,3.3,30.24,WNW,291,3.0,13.0,69,0.00,,---,0.00,VWS V13.00,2013-01-27 04:31:00,
2013-01-26 23:36:00,11.4,3.2,30.24,NNW,329,3.0,15.0,69,0.00,,---,0.00,VWS V13.00,2013-01-27 04:36:00,
2013-01-26 23:41:00,11.4,3.5,30.24,NNW,340,4.0,11.0,70,0.00,,---,0.00,VWS V13.00,2013-01-27 04:41:00,
2013-01-26 23:46:00,11.4,3.5,30.24,WNW,290,3.0,13.0,70,0.00,,---,0.00,VWS V13.00,2013-01-27 04:46:00,
2013-01-26 23:51:00,11.4,3.8,30.23,WNW,298,3.0,13.0,71,0.00,,---,0.00,VWS V13.00,2013-01-27 04:51:00,
2013-01-26 23:56:00,11.4,3.8,30.23,West,277,6.0,13.0,71,0.00,,---,0.00,VWS V13.00,2013-01-27 04:56:00,